JH5EWP-13 Weather Reports


time (UTC)temp
C
wind
direction
speed
KPH
gust
KPH
rain 1hr
cm
rain 24hr
cm
rain mn
cm
humidity
%
barometer
mb
20260508095123 18 282 6.4 12.9 0.00 0.00 0.00 35 1002.9
20260508093623 18 289 8.0 12.9 0.00 0.00 0.00 34 1002.6
20260508092123 20 282 8.0 14.5 0.00 0.00 0.00 38 1002.2
20260508090623 20 283 9.7 20.9 0.00 0.00 0.00 36 1001.9
20260508085123 20 252 9.7 19.3 0.00 0.00 0.00 41 1001.7
20260508083623 21 259 8.0 16.1 0.00 0.00 0.00 41 1001.7
20260508082122 20 252 9.7 19.3 0.00 0.00 0.00 48 1001.4
20260508080622 20 256 11.3 19.3 0.00 0.00 0.00 46 1001.2
20260508075122 21 271 11.3 19.3 0.00 0.00 0.00 47 1000.9
20260508073622 21 267 11.3 24.1 0.00 0.00 0.00 43 1000.9
20260508072122 21 271 11.3 20.9 0.00 0.00 0.00 46 1000.6
20260508070622 21 269 17.7 30.6 0.00 0.00 0.00 45 1000.5
20260508065123 22 268 11.3 19.3 0.00 0.00 0.00 50 1000.5
20260508063623 21 258 9.7 17.7 0.00 0.00 0.00 52 1000.5
20260508062123 22 251 11.3 19.3 0.00 0.00 0.00 48 1000.6
20260508060624 22 241 11.3 24.1 0.00 0.00 0.00 48 1000.5
20260508055123 22 215 8.0 19.3 0.00 0.00 0.00 49 1000.7
20260508053624 22 247 9.7 19.3 0.00 0.00 0.00 48 1000.7
20260508052124 21 241 11.3 19.3 0.00 0.00 0.00 52 1000.8
20260508050623 22 229 9.7 19.3 0.00 0.00 0.00 52 1000.7
20260508045122 22 236 11.3 24.1 0.00 0.00 0.00 52 1001.0
20260508043622 22 259 9.7 19.3 0.00 0.00 0.00 49 1000.8
20260508042123 22 229 11.3 19.3 0.00 0.00 0.00 53 1000.7
20260508040623 22 241 9.7 19.3 0.00 0.00 0.00 52 1001.0
20260508035123 22 229 9.7 20.9 0.00 0.00 0.00 53 1001.0
20260508033622 21 222 11.3 20.9 0.00 0.00 0.00 52 1001.1
20260508032123 21 237 8.0 17.7 0.00 0.00 0.00 52 1001.0
20260508030622 21 239 9.7 14.5 0.00 0.00 0.00 52 1001.0
20260508025122 21 219 8.0 14.5 0.00 0.00 0.00 57 1001.0
20260508023623 21 225 8.0 16.1 0.00 0.00 0.00 62 1001.3
20260508022123 20 259 9.7 14.5 0.00 0.00 0.00 62 1001.3
20260508020622 20 240 8.0 19.3 0.00 0.00 0.00 62 1001.3
20260508015124 21 235 4.8 14.5 0.00 0.00 0.00 63 1001.3
20260508013624 20 241 6.4 14.5 0.00 0.00 0.00 62 1001.4
20260508012123 21 230 6.4 16.1 0.00 0.00 0.00 61 1001.2
20260508010623 21 207 8.0 14.5 0.00 0.00 0.00 62 1001.3
20260508005124 21 220 6.4 12.9 0.00 0.00 0.00 62 1001.0
20260508003623 21 182 4.8 9.7 0.00 0.00 0.00 62 1000.7
20260508002122 21 189 4.8 11.3 0.00 0.00 0.00 64 1001.0
20260508000622 20 266 9.7 17.7 0.00 0.00 0.00 64 1000.8
20260507235123 20 244 8.0 16.1 0.00 0.00 0.00 64 1001.1
20260507233623 20 268 9.7 19.3 0.00 0.00 0.00 65 1001.0
20260507232123 21 271 9.7 17.7 0.00 0.00 0.00 62 1000.9
20260507230622 22 245 8.0 14.5 0.00 0.00 0.00 53 1000.7
20260507225123 22 262 6.4 14.5 0.00 0.00 0.00 49 1000.4
20260507223623 23 165 0.0 3.2 0.00 0.00 0.00 59 1000.5
20260507222123 21 99 3.2 4.8 0.00 0.00 0.00 69 1000.3
20260507220622 20 100 4.8 8.0 0.00 0.00 0.00 73 1000.4
20260507215122 20 103 1.6 4.8 0.00 0.00 0.00 79 1000.7
20260507213622 19 138 1.6 4.8 0.00 0.00 0.00 81 1000.7
20260507212123 18 105 4.8 9.7 0.00 0.00 0.00 81 1000.5
20260507210622 18 125 3.2 8.0 0.00 0.00 0.00 81 1000.4
20260507205122 18 116 3.2 8.0 0.00 0.00 0.00 81 1000.3
20260507203622 18 125 1.6 4.8 0.00 0.00 0.00 81 1000.2
20260507202122 18 122 1.6 4.8 0.00 0.00 0.00 81 1000.4
20260507200622 18 141 0.0 3.2 0.00 0.00 0.00 82 1000.4
20260507195124 18 194 0.0 1.6 0.00 0.00 0.00 83 1000.5
20260507193623 18 221 1.6 4.8 0.00 0.00 0.00 83 1000.1
20260507192122 18 155 0.0 3.2 0.00 0.00 0.00 83 1000.1
20260507190622 18 187 3.2 4.8 0.00 0.00 0.00 83 1000.4
20260507185123 18 195 3.2 6.4 0.00 0.00 0.00 83 1000.0
20260507183623 18 193 4.8 11.3 0.00 0.00 0.00 83 1000.2
20260507182123 18 213 4.8 9.7 0.00 0.00 0.00 83 1000.5
20260507180623 18 217 3.2 9.7 0.00 0.00 0.00 83 1000.6
20260507175123 18 218 3.2 6.4 0.00 0.00 0.00 82 1000.7
20260507173622 18 205 1.6 4.8 0.00 0.00 0.00 82 1000.5
20260507172122 18 264 3.2 6.4 0.00 0.00 0.00 81 1000.5
20260507170622 18 265 1.6 8.0 0.00 0.00 0.00 80 1000.5
20260507165122 18 240 1.6 3.2 0.00 0.00 0.00 79 1000.5
20260507163623 18 238 0.0 1.6 0.00 0.00 0.00 78 1000.5
20260507162122 18 257 1.6 4.8 0.00 0.00 0.00 78 1000.7
20260507160622 18 225 0.0 3.2 0.00 0.00 0.00 77 1000.7
20260507155123 18 225 0.0 0.0 0.00 0.00 0.00 76 1000.9
20260507153623 19 225 0.0 0.0 0.00 0.00 0.00 76 1001.1
20260507152122 19 193 0.0 3.2 0.00 0.00 0.00 76 1001.3
20260507150622 19 181 0.0 3.2 0.00 0.00 0.00 76 1001.1
20260507145122 19 225 0.0 1.6 0.00 0.00 0.00 76 1001.1
20260507143623 19 225 0.0 0.0 0.00 0.00 0.00 75 1001.1
20260507142122 19 225 0.0 1.6 0.00 0.00 0.00 75 1001.2
20260507140623 19 225 0.0 1.6 0.00 0.00 0.00 74 1001.4
20260507135123 19 269 1.6 4.8 0.00 0.00 0.00 74 1001.5
20260507133623 19 271 1.6 4.8 0.00 0.00 0.00 74 1001.7
20260507132122 18 270 0.0 1.6 0.00 0.00 0.00 73 1001.5
20260507130624 18 270 0.0 1.6 0.00 0.00 0.00 73 1001.3
20260507125123 19 270 0.0 0.0 0.00 0.00 0.00 72 1001.4
20260507123623 19 262 0.0 1.6 0.00 0.00 0.00 72 1001.4
20260507122122 19 225 0.0 1.6 0.00 0.00 0.00 72 1001.6
20260507120622 20 225 0.0 3.2 0.00 0.00 0.00 71 1001.3
20260507115123 20 225 0.0 3.2 0.00 0.00 0.00 71 1001.4
20260507113622 20 254 1.6 4.8 0.00 0.00 0.00 70 1001.4
20260507112122 20 252 1.6 4.8 0.00 0.00 0.00 70 1001.5
20260507110622 20 251 1.6 3.2 0.00 0.00 0.00 69 1001.3
20260507105122 20 258 1.6 4.8 0.00 0.00 0.00 69 1001.1
20260507103622 21 284 3.2 4.8 0.00 0.00 0.00 67 1001.2
20260507102122 21 194 1.6 4.8 0.00 0.00 0.00 66 1001.0
20260507100624 21 212 1.6 3.2 0.00 0.00 0.00 65 1000.9